Flag for Germany Weather past 2 weeks in Neuburg an der Donau, Bavaria, Germany

Now
66 °F

Mild.


Feels Like: 66 °F
Forecast: 43 / 63 °F
Wind: 8 mph from Northwest

Location: Neuburg / Donau

Current Time: Sep 4, 2015 at 4:55:58 PM

Latest Report: Sep 4, 2015 at 3:20 PM


Visibility: N/A

Pressure: 30.01 "Hg

Humidity: 49%

Dew point: 46 °F

Location of Neuburg an der DonauLocation

Historic Weather in Neuburg an der Donau — Graph

°F

Neuburg an der Donau temperature yesterday

Maximum temperature yesterday: 63 °F (at 5:20 PM)
Minimum temperature yesterday: 48 °F (at 2:20 AM)
Average temperature yesterday: 57 °F

Past Weeks' High & Low Weather Summary

 TemperatureHumidityPressure
High91 °F (Aug 30, 4:20 PM)100% (Aug 21, 2:20 AM)30.30 "Hg (Aug 21, 2:20 AM)
Low45 °F (Aug 26, 5:20 AM)28% (Aug 26, 5:20 PM)29.71 "Hg (Aug 24, 3:20 PM)
Average66 °F69%30.03 "Hg
* Reported Aug 20 3:20 PM — Sep 4 3:20 PM, Neuburg an der Donau, Weather by CustomWeather, © 2015

Note: Actual official high and low records may vary slightly from our data, if they occured in-between our weather recording intervals... More about our weather records

Advertising

Neuburg an der Donau weather history for previous 24 hours

 ConditionsComfort  
Time TempWeatherWind HumidityBarometerVisibility
3:20 PM
Fri, Sep 4
66 °FMild.8 mph49%30.01 "HgN/A
2:20 PM66 °FScattered clouds.3 mph52%30.01 "HgN/A
1:20 PM64 °FScattered clouds.5 mph52%30.01 "HgN/A
12:20 PM61 °FScattered clouds.2 mph63%30.04 "HgN/A
11:20 AM57 °FBroken clouds.1 mph82%30.04 "HgN/A
10:20 AM57 °FPartly sunny.5 mph82%30.04 "HgN/A
9:20 AM54 °FLight rain. Partly sunny.5 mph94%30.04 "Hg5 mi
8:20 AM54 °FPartly sunny.6 mph94%30.01 "Hg5 mi
7:20 AM52 °FPassing clouds.No wind94%30.01 "Hg5 mi
6:20 AM52 °FFog.3 mph100%30.01 "Hg5 mi
5:20 AM54 °FCool.3 mph94%30.01 "HgN/A
4:20 AM54 °FCool.5 mph94%30.01 "HgN/A
3:20 AM55 °FCool.6 mph88%30.01 "HgN/A
2:20 AM55 °FCool.5 mph88%30.01 "HgN/A
1:20 AM57 °FCool.8 mph82%30.01 "HgN/A
12:20 AM57 °FCool.5 mph94%30.01 "HgN/A
11:20 PM
Thu, Sep 3
59 °FCool.3 mph88%29.98 "HgN/A
10:20 PM59 °FCool.3 mph94%29.98 "HgN/A
9:20 PM59 °FCool.6 mph88%29.98 "HgN/A
8:20 PM59 °FCool.3 mph88%29.98 "HgN/A
7:20 PM61 °FCool.1 mph83%29.95 "HgN/A
6:20 PM61 °FCool.2 mph77%29.95 "HgN/A
5:20 PM63 °FPartly sunny.3 mph73%29.95 "HgN/A
4:20 PM61 °FLight rain. Partly sunny.2 mph83%29.95 "HgN/A
Weather by CustomWeather, © 2015

See weather overviewHow to use our weather pages